Year,Month,Day,Hour,Minute,Value (Times are PST for temperature in C)
2016,08,22,00,00,14.70
2016,08,22,00,01,14.70
2016,08,22,00,02,14.70
2016,08,22,00,03,14.70
2016,08,22,00,04,14.70
2016,08,22,00,05,14.70
2016,08,22,00,06,14.70
2016,08,22,00,07,14.70
2016,08,22,00,08,14.70
2016,08,22,00,09,14.70
2016,08,22,00,10,14.70
2016,08,22,00,11,14.70
2016,08,22,00,12,14.70
2016,08,22,00,13,14.70
2016,08,22,00,14,14.70
2016,08,22,00,15,14.70
2016,08,22,00,16,14.70
2016,08,22,00,17,14.70
2016,08,22,00,18,14.70
2016,08,22,00,19,14.70
2016,08,22,00,20,14.70
2016,08,22,00,21,14.70
2016,08,22,00,22,14.70
2016,08,22,00,23,14.70
2016,08,22,00,24,14.70
2016,08,22,00,25,14.70
2016,08,22,00,26,14.70
2016,08,22,00,27,14.70
2016,08,22,00,28,14.70
2016,08,22,00,29,14.70
2016,08,22,00,30,14.70
2016,08,22,00,31,14.70
2016,08,22,00,32,14.70
2016,08,22,00,33,14.70
2016,08,22,00,34,14.70
2016,08,22,00,35,14.70
2016,08,22,00,36,14.70
2016,08,22,00,37,14.70
2016,08,22,00,38,14.70
2016,08,22,00,39,14.70
2016,08,22,00,40,14.70
2016,08,22,00,41,14.70
2016,08,22,00,42,14.70
2016,08,22,00,43,14.70
2016,08,22,00,44,14.70
2016,08,22,00,45,14.70
2016,08,22,00,46,14.70
2016,08,22,00,47,14.70
2016,08,22,00,48,14.60
2016,08,22,00,49,14.60
2016,08,22,00,50,14.60
2016,08,22,00,51,14.60
2016,08,22,00,52,14.60
2016,08,22,00,53,14.60
2016,08,22,00,54,14.60
2016,08,22,00,55,14.60
2016,08,22,00,56,14.60
2016,08,22,00,57,14.60
2016,08,22,00,58,14.60
2016,08,22,00,59,14.60
2016,08,22,01,00,14.60
2016,08,22,01,01,14.60
2016,08,22,01,02,14.50
2016,08,22,01,03,14.50
2016,08,22,01,04,14.50
2016,08,22,01,05,14.50
2016,08,22,01,06,14.50
2016,08,22,01,07,14.50
2016,08,22,01,08,14.50
2016,08,22,01,09,14.40
2016,08,22,01,10,14.40
2016,08,22,01,11,14.40
2016,08,22,01,12,14.40
2016,08,22,01,13,14.40
2016,08,22,01,14,14.40
2016,08,22,01,15,14.40
2016,08,22,01,16,14.40
2016,08,22,01,17,14.40
2016,08,22,01,18,14.40
2016,08,22,01,19,14.40
2016,08,22,01,20,14.40
2016,08,22,01,21,14.40
2016,08,22,01,22,14.40
2016,08,22,01,23,14.40
2016,08,22,01,24,14.40
2016,08,22,01,25,14.40
2016,08,22,01,26,14.40
2016,08,22,01,27,14.40
2016,08,22,01,28,14.40
2016,08,22,01,29,14.40
2016,08,22,01,30,14.40
2016,08,22,01,31,14.40
2016,08,22,01,32,14.40
2016,08,22,01,33,14.40
2016,08,22,01,34,14.40
2016,08,22,01,35,14.40
2016,08,22,01,36,14.40
2016,08,22,01,37,14.40
2016,08,22,01,38,14.40
2016,08,22,01,39,14.40
2016,08,22,01,40,14.30
2016,08,22,01,41,14.40
2016,08,22,01,42,14.40
2016,08,22,01,43,14.40
2016,08,22,01,44,14.40
2016,08,22,01,45,14.40
2016,08,22,01,46,14.40
2016,08,22,01,47,14.40
2016,08,22,01,48,14.40
2016,08,22,01,49,14.40
2016,08,22,01,50,14.40
2016,08,22,01,51,14.40
2016,08,22,01,52,14.40
2016,08,22,01,53,14.40
2016,08,22,01,54,14.30
2016,08,22,01,55,14.40
2016,08,22,01,56,14.40
2016,08,22,01,57,14.30
2016,08,22,01,58,14.40
2016,08,22,01,59,14.30
2016,08,22,02,00,14.40
2016,08,22,02,01,14.40
2016,08,22,02,02,14.40
2016,08,22,02,03,14.40
2016,08,22,02,04,14.40
2016,08,22,02,05,14.40
2016,08,22,02,06,14.40
2016,08,22,02,07,14.40
2016,08,22,02,08,14.40
2016,08,22,02,09,14.40
2016,08,22,02,10,14.40
2016,08,22,02,11,14.40
2016,08,22,02,12,14.40
2016,08,22,02,13,14.40
2016,08,22,02,14,14.40
2016,08,22,02,15,14.40
2016,08,22,02,16,14.40
2016,08,22,02,17,14.40
2016,08,22,02,18,14.40
2016,08,22,02,19,14.40
2016,08,22,02,20,14.40
2016,08,22,02,21,14.40
2016,08,22,02,22,14.40
2016,08,22,02,23,14.40
2016,08,22,02,24,14.40
2016,08,22,02,25,14.40
2016,08,22,02,26,14.40
2016,08,22,02,27,14.40
2016,08,22,02,28,14.40
2016,08,22,02,29,14.40
2016,08,22,02,30,14.40
2016,08,22,02,31,14.40
2016,08,22,02,32,14.40
2016,08,22,02,33,14.50
2016,08,22,02,34,14.40
2016,08,22,02,35,14.40
2016,08,22,02,36,14.40
2016,08,22,02,37,14.40
2016,08,22,02,38,14.40
2016,08,22,02,39,14.40
2016,08,22,02,40,14.40
2016,08,22,02,41,14.40
2016,08,22,02,42,14.40
2016,08,22,02,43,14.40
2016,08,22,02,44,14.40
2016,08,22,02,45,14.40
2016,08,22,02,46,14.40
2016,08,22,02,47,14.40
2016,08,22,02,48,14.40
2016,08,22,02,49,14.40
2016,08,22,02,50,14.40
2016,08,22,02,51,14.40
2016,08,22,02,52,14.40
2016,08,22,02,53,14.40
2016,08,22,02,54,14.40
2016,08,22,02,55,14.40
2016,08,22,02,56,14.40
2016,08,22,02,57,14.40
2016,08,22,02,58,14.30
2016,08,22,02,59,14.40
2016,08,22,03,00,14.30
2016,08,22,03,01,14.40
2016,08,22,03,02,14.30
2016,08,22,03,03,14.30
2016,08,22,03,04,14.40
2016,08,22,03,05,14.30
2016,08,22,03,06,14.30
2016,08,22,03,07,14.40
2016,08,22,03,08,14.30
2016,08,22,03,09,14.40
2016,08,22,03,10,14.40
2016,08,22,03,11,14.40
2016,08,22,03,12,14.30
2016,08,22,03,13,14.40
2016,08,22,03,14,14.30
2016,08,22,03,15,14.30
2016,08,22,03,16,14.30
2016,08,22,03,17,14.30
2016,08,22,03,18,14.40
2016,08,22,03,19,14.40
2016,08,22,03,20,14.40
2016,08,22,03,21,14.30
2016,08,22,03,22,14.30
2016,08,22,03,23,14.30
2016,08,22,03,24,14.30
2016,08,22,03,25,14.30
2016,08,22,03,26,14.30
2016,08,22,03,27,14.30
2016,08,22,03,28,14.30
2016,08,22,03,29,14.30
2016,08,22,03,30,14.30
2016,08,22,03,31,14.30
2016,08,22,03,32,14.30
2016,08,22,03,33,14.30
2016,08,22,03,34,14.30
2016,08,22,03,35,14.30
2016,08,22,03,36,14.30
2016,08,22,03,37,14.30
2016,08,22,03,38,14.30
2016,08,22,03,39,14.30
2016,08,22,03,40,14.30
2016,08,22,03,41,14.30
2016,08,22,03,42,14.30
2016,08,22,03,43,14.30
2016,08,22,03,44,14.30
2016,08,22,03,45,14.30
2016,08,22,03,46,14.30
2016,08,22,03,47,14.30
2016,08,22,03,48,14.30
2016,08,22,03,49,14.30
2016,08,22,03,50,14.30
2016,08,22,03,51,14.30
2016,08,22,03,52,14.30
2016,08,22,03,53,14.30
2016,08,22,03,54,14.30
2016,08,22,03,55,14.30
2016,08,22,03,56,14.30
2016,08,22,03,57,14.20
2016,08,22,03,58,14.20
2016,08,22,03,59,14.20
2016,08,22,04,00,14.20
2016,08,22,04,01,14.20
2016,08,22,04,02,14.20
2016,08,22,04,03,14.20
2016,08,22,04,04,14.20
2016,08,22,04,05,14.20
2016,08,22,04,06,14.20
2016,08,22,04,07,14.20
2016,08,22,04,08,14.20
2016,08,22,04,09,14.20
2016,08,22,04,10,14.20
2016,08,22,04,11,14.20
2016,08,22,04,12,14.20
2016,08,22,04,13,14.20
2016,08,22,04,14,14.20
2016,08,22,04,15,14.20
2016,08,22,04,16,14.20
2016,08,22,04,17,14.20
2016,08,22,04,18,14.30
2016,08,22,04,19,14.30
2016,08,22,04,20,14.30
2016,08,22,04,21,14.30
2016,08,22,04,22,14.20
2016,08,22,04,23,14.30
2016,08,22,04,24,14.30
2016,08,22,04,25,14.30
2016,08,22,04,26,14.20
2016,08,22,04,27,14.30
2016,08,22,04,28,14.30
2016,08,22,04,29,14.20
2016,08,22,04,30,14.30
2016,08,22,04,31,14.20
2016,08,22,04,32,14.20
2016,08,22,04,33,14.20
2016,08,22,04,34,14.20
2016,08,22,04,35,14.20
2016,08,22,04,36,14.20
2016,08,22,04,37,14.20
2016,08,22,04,38,14.20
2016,08,22,04,39,14.20
2016,08,22,04,40,14.20
2016,08,22,04,41,14.20
2016,08,22,04,42,14.20
2016,08,22,04,43,14.20
2016,08,22,04,44,14.20
2016,08,22,04,45,14.20
2016,08,22,04,46,14.20
2016,08,22,04,47,14.20
2016,08,22,04,48,14.20
2016,08,22,04,49,14.20
2016,08,22,04,50,14.20
2016,08,22,04,51,14.20
2016,08,22,04,52,14.20
2016,08,22,04,53,14.20
2016,08,22,04,54,14.20
2016,08,22,04,55,14.20
2016,08,22,04,56,14.20
2016,08,22,04,57,14.20
2016,08,22,04,58,14.30
2016,08,22,04,59,14.30
2016,08,22,05,00,14.30
2016,08,22,05,01,14.30
2016,08,22,05,02,14.30
2016,08,22,05,03,14.30
2016,08,22,05,04,14.30
2016,08,22,05,05,14.30
2016,08,22,05,06,14.30
2016,08,22,05,07,14.20
2016,08,22,05,08,14.20
2016,08,22,05,09,14.20
2016,08,22,05,10,14.20
2016,08,22,05,11,14.20
2016,08,22,05,12,14.20
2016,08,22,05,13,14.20
2016,08,22,05,14,14.20
2016,08,22,05,15,14.20
2016,08,22,05,16,14.20
2016,08,22,05,17,14.20
2016,08,22,05,18,14.20
2016,08,22,05,19,14.20
2016,08,22,05,20,14.20
2016,08,22,05,21,14.20
2016,08,22,05,22,14.20
2016,08,22,05,23,14.20
2016,08,22,05,24,14.20
2016,08,22,05,25,14.20
2016,08,22,05,26,14.20
2016,08,22,05,27,14.20
2016,08,22,05,28,14.20
2016,08,22,05,29,14.20
2016,08,22,05,30,14.20
2016,08,22,05,31,14.20
2016,08,22,05,32,14.20
2016,08,22,05,33,14.20
2016,08,22,05,34,14.20
2016,08,22,05,35,14.20
2016,08,22,05,36,14.20
2016,08,22,05,37,14.20
2016,08,22,05,38,14.20
2016,08,22,05,39,14.20
2016,08,22,05,40,14.20
2016,08,22,05,41,14.20
2016,08,22,05,42,14.20
2016,08,22,05,43,14.20
2016,08,22,05,44,14.20
2016,08,22,05,45,14.20
2016,08,22,05,46,14.20
2016,08,22,05,47,14.20
2016,08,22,05,48,14.20
2016,08,22,05,49,14.20
2016,08,22,05,50,14.20
2016,08,22,05,51,14.20
2016,08,22,05,52,14.20
2016,08,22,05,53,14.20
2016,08,22,05,54,14.20
2016,08,22,05,55,14.20
2016,08,22,05,56,14.20
2016,08,22,05,57,14.20
2016,08,22,05,58,14.20
2016,08,22,05,59,14.20
2016,08,22,06,00,14.20
2016,08,22,06,01,14.20
2016,08,22,06,02,14.20
2016,08,22,06,03,14.20
2016,08,22,06,04,14.20
2016,08,22,06,05,14.20
2016,08,22,06,06,14.20
2016,08,22,06,07,14.20
2016,08,22,06,08,14.20
2016,08,22,06,09,14.20
2016,08,22,06,10,14.20
2016,08,22,06,11,14.20
2016,08,22,06,12,14.10
2016,08,22,06,13,14.10
2016,08,22,06,14,14.10
2016,08,22,06,15,14.10
2016,08,22,06,16,14.10
2016,08,22,06,17,14.10
2016,08,22,06,18,14.10
2016,08,22,06,19,14.10
2016,08,22,06,20,14.10
2016,08,22,06,21,14.10
2016,08,22,06,22,14.10
2016,08,22,06,23,14.10
2016,08,22,06,24,14.10
2016,08,22,06,25,14.10
2016,08,22,06,26,14.10
2016,08,22,06,27,14.10
2016,08,22,06,28,14.10
2016,08,22,06,29,14.10
2016,08,22,06,30,14.10
2016,08,22,06,31,14.10
2016,08,22,06,32,14.10
2016,08,22,06,33,14.00
2016,08,22,06,34,14.00
2016,08,22,06,35,14.00
2016,08,22,06,36,14.00
2016,08,22,06,37,14.00
2016,08,22,06,38,14.00
2016,08,22,06,39,14.00
2016,08,22,06,40,14.00
2016,08,22,06,41,14.00
2016,08,22,06,42,14.00
2016,08,22,06,43,14.00
2016,08,22,06,44,14.00
2016,08,22,06,45,14.00
2016,08,22,06,46,14.00
2016,08,22,06,47,14.00
2016,08,22,06,48,14.00
2016,08,22,06,49,14.00
2016,08,22,06,50,14.00
2016,08,22,06,51,14.00
2016,08,22,06,52,14.00
2016,08,22,06,53,14.00
2016,08,22,06,54,14.00
2016,08,22,06,55,14.00
2016,08,22,06,56,14.00
2016,08,22,06,57,14.00
2016,08,22,06,58,14.10
2016,08,22,06,59,14.10
2016,08,22,07,00,14.10
2016,08,22,07,01,14.10
2016,08,22,07,02,14.10
2016,08,22,07,03,14.10
2016,08,22,07,04,14.10
2016,08,22,07,05,14.10
2016,08,22,07,06,14.10
2016,08,22,07,07,14.10
2016,08,22,07,08,14.10
2016,08,22,07,09,14.20
2016,08,22,07,10,14.20
2016,08,22,07,11,14.20
2016,08,22,07,12,14.20
2016,08,22,07,13,14.20
2016,08,22,07,14,14.20
2016,08,22,07,15,14.20
2016,08,22,07,16,14.20
2016,08,22,07,17,14.20
2016,08,22,07,18,14.20
2016,08,22,07,19,14.20
2016,08,22,07,20,14.20
2016,08,22,07,21,14.30
2016,08,22,07,22,14.30
2016,08,22,07,23,14.30
2016,08,22,07,24,14.30
2016,08,22,07,25,14.30
2016,08,22,07,26,14.30
2016,08,22,07,27,14.30
2016,08,22,07,28,14.30
2016,08,22,07,29,14.30
2016,08,22,07,30,14.40
2016,08,22,07,31,14.40
2016,08,22,07,32,14.40
2016,08,22,07,33,14.40
2016,08,22,07,34,14.40
2016,08,22,07,35,14.40
2016,08,22,07,36,14.50
2016,08,22,07,37,14.50
2016,08,22,07,38,14.50
2016,08,22,07,39,14.50
2016,08,22,07,40,14.60
2016,08,22,07,41,14.60
2016,08,22,07,42,14.60
2016,08,22,07,43,14.60
2016,08,22,07,44,14.60
2016,08,22,07,45,14.60
2016,08,22,07,46,14.60
2016,08,22,07,47,14.70
2016,08,22,07,48,14.70
2016,08,22,07,49,14.70
2016,08,22,07,50,14.70
2016,08,22,07,51,14.70
2016,08,22,07,52,14.70
2016,08,22,07,53,14.70
2016,08,22,07,54,14.80
2016,08,22,07,55,14.80
2016,08,22,07,56,14.80
2016,08,22,07,57,14.80
2016,08,22,07,58,14.80
2016,08,22,07,59,14.80
2016,08,22,08,00,14.80
2016,08,22,08,01,14.80
2016,08,22,08,02,14.80
2016,08,22,08,03,14.80
2016,08,22,08,04,14.90
2016,08,22,08,05,14.90
2016,08,22,08,06,14.90
2016,08,22,08,07,14.90
2016,08,22,08,08,14.90
2016,08,22,08,09,14.90
2016,08,22,08,10,14.90
2016,08,22,08,11,15.00
2016,08,22,08,12,15.00
2016,08,22,08,13,15.00
2016,08,22,08,14,15.00
2016,08,22,08,15,15.00
2016,08,22,08,16,15.10
2016,08,22,08,17,15.10
2016,08,22,08,18,15.10
2016,08,22,08,19,15.10
2016,08,22,08,20,15.10
2016,08,22,08,21,15.10
2016,08,22,08,22,15.10
2016,08,22,08,23,15.10
2016,08,22,08,24,15.20
2016,08,22,08,25,15.20
2016,08,22,08,26,15.20
2016,08,22,08,27,15.20
2016,08,22,08,28,15.30
2016,08,22,08,29,15.30
2016,08,22,08,30,15.30
2016,08,22,08,31,15.30
2016,08,22,08,32,15.30
2016,08,22,08,33,15.30
2016,08,22,08,34,15.30
2016,08,22,08,35,15.30
2016,08,22,08,36,15.30
2016,08,22,08,37,15.30
2016,08,22,08,38,15.30
2016,08,22,08,39,15.30
2016,08,22,08,40,15.40
2016,08,22,08,41,15.40
2016,08,22,08,42,15.40
2016,08,22,08,43,15.40
2016,08,22,08,44,15.40
2016,08,22,08,45,15.40
2016,08,22,08,46,15.50
2016,08,22,08,47,15.50
2016,08,22,08,48,15.50
2016,08,22,08,49,15.60
2016,08,22,08,50,15.60
2016,08,22,08,51,15.60
2016,08,22,08,52,15.60
2016,08,22,08,53,15.70
2016,08,22,08,54,15.70
2016,08,22,08,55,15.70
2016,08,22,08,56,15.70
2016,08,22,08,57,15.70
2016,08,22,08,58,15.70
2016,08,22,08,59,15.70
2016,08,22,09,00,15.70
2016,08,22,09,01,15.70
2016,08,22,09,02,15.80
2016,08,22,09,03,15.80
2016,08,22,09,04,15.80
2016,08,22,09,05,15.80
2016,08,22,09,06,15.80
2016,08,22,09,07,15.80
2016,08,22,09,08,15.80
2016,08,22,09,09,15.80
2016,08,22,09,10,15.80
2016,08,22,09,11,15.80
2016,08,22,09,12,15.80
2016,08,22,09,13,15.80
2016,08,22,09,14,15.80
2016,08,22,09,15,15.90
2016,08,22,09,16,15.90
2016,08,22,09,17,15.90
2016,08,22,09,18,15.90
2016,08,22,09,19,15.90
2016,08,22,09,20,16.00
2016,08,22,09,21,16.00
2016,08,22,09,22,16.00
2016,08,22,09,23,16.10
2016,08,22,09,24,16.10
2016,08,22,09,25,16.10
2016,08,22,09,26,16.10
2016,08,22,09,27,16.10
2016,08,22,09,28,16.10
2016,08,22,09,29,16.20
2016,08,22,09,30,16.20
2016,08,22,09,31,16.20
2016,08,22,09,32,16.20
2016,08,22,09,33,16.10
2016,08,22,09,34,16.10
2016,08,22,09,35,16.10
2016,08,22,09,36,16.10
2016,08,22,09,37,16.10
2016,08,22,09,38,16.10
2016,08,22,09,39,16.10
2016,08,22,09,40,16.00
2016,08,22,09,41,15.90
2016,08,22,09,42,15.90
2016,08,22,09,43,15.80
2016,08,22,09,44,15.60
2016,08,22,09,45,15.50
2016,08,22,09,46,15.40
2016,08,22,09,47,15.30
2016,08,22,09,48,15.20
2016,08,22,09,49,15.10
2016,08,22,09,50,15.00
2016,08,22,09,51,15.00
2016,08,22,09,52,14.90
2016,08,22,09,53,14.90
2016,08,22,09,54,14.80
2016,08,22,09,55,14.80
2016,08,22,09,56,14.80
2016,08,22,09,57,14.70
2016,08,22,09,58,14.70
2016,08,22,09,59,14.70
2016,08,22,10,00,14.70
2016,08,22,10,01,14.70
2016,08,22,10,02,14.70
2016,08,22,10,03,14.60
2016,08,22,10,04,14.60
2016,08,22,10,05,14.60
2016,08,22,10,06,14.60
2016,08,22,10,07,14.70
2016,08,22,10,08,14.70
2016,08,22,10,09,14.70
2016,08,22,10,10,14.70
2016,08,22,10,11,14.70
2016,08,22,10,12,14.70
2016,08,22,10,13,14.70
2016,08,22,10,14,14.60
2016,08,22,10,15,14.60
2016,08,22,10,16,14.60
2016,08,22,10,17,14.60
2016,08,22,10,18,14.70
2016,08,22,10,19,14.70
2016,08,22,10,20,14.70
2016,08,22,10,21,14.70
2016,08,22,10,22,14.70
2016,08,22,10,23,14.70
2016,08,22,10,24,14.60
2016,08,22,10,25,14.60
2016,08,22,10,26,14.60
2016,08,22,10,27,14.60
2016,08,22,10,28,14.60
2016,08,22,10,29,14.60
2016,08,22,10,30,14.60
2016,08,22,10,31,14.60
2016,08,22,10,32,14.60
2016,08,22,10,33,14.60
2016,08,22,10,34,14.60
2016,08,22,10,35,14.60
2016,08,22,10,36,14.60
2016,08,22,10,37,14.60
2016,08,22,10,38,14.60
2016,08,22,10,39,14.60
2016,08,22,10,40,14.60
2016,08,22,10,41,14.60
2016,08,22,10,42,14.60
2016,08,22,10,43,14.60
2016,08,22,10,44,14.60
2016,08,22,10,45,14.60
2016,08,22,10,46,14.60
2016,08,22,10,47,14.60
2016,08,22,10,48,14.70
2016,08,22,10,49,14.70
2016,08,22,10,50,14.70
2016,08,22,10,51,14.70
2016,08,22,10,52,14.70
2016,08,22,10,53,14.70
2016,08,22,10,54,14.70
2016,08,22,10,55,14.70
2016,08,22,10,56,14.80
2016,08,22,10,57,14.80
2016,08,22,10,58,14.80
2016,08,22,10,59,14.80
2016,08,22,11,00,14.80
2016,08,22,11,01,14.80
2016,08,22,11,02,14.80
2016,08,22,11,03,14.80
2016,08,22,11,04,14.80
2016,08,22,11,05,14.80
2016,08,22,11,06,14.80
2016,08,22,11,07,14.80
2016,08,22,11,08,14.80
2016,08,22,11,09,14.90
2016,08,22,11,10,14.90
2016,08,22,11,11,15.00
2016,08,22,11,12,15.00
2016,08,22,11,13,15.10
2016,08,22,11,14,15.10
2016,08,22,11,15,15.20
2016,08,22,11,16,15.20
2016,08,22,11,17,15.10
2016,08,22,11,18,15.10
2016,08,22,11,19,15.10
2016,08,22,11,20,15.00
2016,08,22,11,21,15.00
2016,08,22,11,22,15.00
2016,08,22,11,23,15.00
2016,08,22,11,24,15.00
2016,08,22,11,25,15.00
2016,08,22,11,26,15.00
2016,08,22,11,27,15.00
2016,08,22,11,28,15.10
2016,08,22,11,29,15.10
2016,08,22,11,30,15.10
2016,08,22,11,31,15.10
2016,08,22,11,32,15.20
2016,08,22,11,33,15.20
2016,08,22,11,34,15.30
2016,08,22,11,35,15.30
2016,08,22,11,36,15.40
2016,08,22,11,37,15.50
2016,08,22,11,38,15.50
2016,08,22,11,39,15.60
2016,08,22,11,40,15.60
2016,08,22,11,41,15.70
2016,08,22,11,42,15.70
2016,08,22,11,43,15.70
2016,08,22,11,44,15.80
2016,08,22,11,45,15.80
2016,08,22,11,46,15.80
2016,08,22,11,47,15.80
2016,08,22,11,48,15.90
2016,08,22,11,49,15.90
2016,08,22,11,50,15.90
2016,08,22,11,51,15.90
2016,08,22,11,52,15.90
2016,08,22,11,53,15.90
2016,08,22,11,54,15.90
2016,08,22,11,55,15.90
2016,08,22,11,56,15.90
2016,08,22,11,57,15.90
2016,08,22,11,58,15.90
2016,08,22,11,59,16.00
2016,08,22,12,00,16.00
2016,08,22,12,01,16.00
2016,08,22,12,02,16.00
2016,08,22,12,03,16.00
2016,08,22,12,04,16.00
2016,08,22,12,05,16.10
2016,08,22,12,06,16.10
2016,08,22,12,07,16.10
2016,08,22,12,08,16.20
2016,08,22,12,09,16.20
2016,08,22,12,10,16.20
2016,08,22,12,11,16.20
2016,08,22,12,12,16.20
2016,08,22,12,13,16.10
2016,08,22,12,14,16.10
2016,08,22,12,15,16.10
2016,08,22,12,16,16.10
2016,08,22,12,17,16.10
2016,08,22,12,18,16.20
2016,08,22,12,19,16.20
2016,08,22,12,20,16.20
2016,08,22,12,21,16.20
2016,08,22,12,22,16.20
2016,08,22,12,23,16.20
2016,08,22,12,24,16.20
2016,08,22,12,25,16.20
2016,08,22,12,26,16.20
2016,08,22,12,27,16.30
2016,08,22,12,28,16.30
2016,08,22,12,29,16.30
2016,08,22,12,30,16.30
2016,08,22,12,31,16.30
2016,08,22,12,32,16.30
2016,08,22,12,33,16.30
2016,08,22,12,34,16.30
2016,08,22,12,35,16.30
2016,08,22,12,36,16.30
2016,08,22,12,37,16.30
2016,08,22,12,38,16.30
2016,08,22,12,39,16.30
2016,08,22,12,40,16.30
2016,08,22,12,41,16.20
2016,08,22,12,42,16.20
2016,08,22,12,43,16.20
2016,08,22,12,44,16.20
2016,08,22,12,45,16.20
2016,08,22,12,46,16.20
2016,08,22,12,47,16.20
2016,08,22,12,48,16.10
2016,08,22,12,49,16.10
2016,08,22,12,50,16.10
2016,08,22,12,51,16.10
2016,08,22,12,52,16.10
2016,08,22,12,53,16.10
2016,08,22,12,54,16.10
2016,08,22,12,55,16.10
2016,08,22,12,56,16.10
2016,08,22,12,57,16.10
2016,08,22,12,58,16.10
2016,08,22,12,59,16.10
2016,08,22,13,00,16.20
2016,08,22,13,01,16.20
2016,08,22,13,02,16.20
2016,08,22,13,03,16.20
2016,08,22,13,04,16.20
2016,08,22,13,05,16.20
2016,08,22,13,06,16.20
2016,08,22,13,07,16.20
2016,08,22,13,08,16.20
2016,08,22,13,09,16.20
2016,08,22,13,10,16.20
2016,08,22,13,11,16.20
2016,08,22,13,12,16.20
2016,08,22,13,13,16.20
2016,08,22,13,14,16.20
2016,08,22,13,15,16.20
2016,08,22,13,16,16.20
2016,08,22,13,17,16.20
2016,08,22,13,18,16.20
2016,08,22,13,19,16.20
2016,08,22,13,20,16.20
2016,08,22,13,21,16.20
2016,08,22,13,22,16.20
2016,08,22,13,23,16.20
2016,08,22,13,24,16.20
2016,08,22,13,25,16.20
2016,08,22,13,26,16.30
2016,08,22,13,27,16.30
2016,08,22,13,28,16.30
2016,08,22,13,29,16.30
2016,08,22,13,30,16.30
2016,08,22,13,31,16.30
2016,08,22,13,32,16.30
2016,08,22,13,33,16.30
2016,08,22,13,34,16.30
2016,08,22,13,35,16.40
2016,08,22,13,36,16.40
2016,08,22,13,37,16.50
2016,08,22,13,38,16.50
2016,08,22,13,39,16.50
2016,08,22,13,40,16.50
2016,08,22,13,41,16.50
2016,08,22,13,42,16.50
2016,08,22,13,43,16.50
2016,08,22,13,44,16.50
2016,08,22,13,45,16.50
2016,08,22,13,46,16.50
2016,08,22,13,47,16.50
2016,08,22,13,48,16.50
2016,08,22,13,49,16.60
2016,08,22,13,50,16.60
2016,08,22,13,51,16.60
2016,08,22,13,52,16.60
2016,08,22,13,53,16.60
2016,08,22,13,54,16.60
2016,08,22,13,55,16.70
2016,08,22,13,56,16.70
2016,08,22,13,57,16.70
2016,08,22,13,58,16.70
2016,08,22,13,59,16.70
2016,08,22,14,00,16.70
2016,08,22,14,01,16.70
2016,08,22,14,02,16.70
2016,08,22,14,03,16.70
2016,08,22,14,04,16.70
2016,08,22,14,05,16.70
2016,08,22,14,06,16.70
2016,08,22,14,07,16.70
2016,08,22,14,08,16.70
2016,08,22,14,09,16.80
2016,08,22,14,10,16.80
2016,08,22,14,11,16.80
2016,08,22,14,12,16.80
2016,08,22,14,13,16.80
2016,08,22,14,14,16.80
2016,08,22,14,15,16.80
2016,08,22,14,16,16.80
2016,08,22,14,17,16.80
2016,08,22,14,18,16.80
2016,08,22,14,19,16.90
2016,08,22,14,20,16.90
2016,08,22,14,21,16.80
2016,08,22,14,22,16.90
2016,08,22,14,23,16.90
2016,08,22,14,24,16.90
2016,08,22,14,25,16.90
2016,08,22,14,26,16.90
2016,08,22,14,27,16.90
2016,08,22,14,28,17.00
2016,08,22,14,29,17.00
2016,08,22,14,30,17.10
2016,08,22,14,31,17.10
2016,08,22,14,32,17.10
2016,08,22,14,33,17.20
2016,08,22,14,34,17.20
2016,08,22,14,35,17.30
2016,08,22,14,36,17.30
2016,08,22,14,37,17.30
2016,08,22,14,38,17.40
2016,08,22,14,39,17.40
2016,08,22,14,40,17.40
2016,08,22,14,41,17.40
2016,08,22,14,42,17.50
2016,08,22,14,43,17.50
2016,08,22,14,44,17.50
2016,08,22,14,45,17.50
2016,08,22,14,46,17.60
2016,08,22,14,47,17.60
2016,08,22,14,48,17.60
2016,08,22,14,49,17.60
2016,08,22,14,50,17.50
2016,08,22,14,51,17.50
2016,08,22,14,52,17.50
2016,08,22,14,53,17.50
2016,08,22,14,54,17.50
2016,08,22,14,55,17.50
2016,08,22,14,56,17.50
2016,08,22,14,57,17.50
2016,08,22,14,58,17.40
2016,08,22,14,59,17.40
2016,08,22,15,00,17.40
2016,08,22,15,01,17.50
2016,08,22,15,02,17.50
2016,08,22,15,03,17.40
2016,08,22,15,04,17.50
2016,08,22,15,05,17.50
2016,08,22,15,06,17.50
2016,08,22,15,07,17.50
2016,08,22,15,08,17.50
2016,08,22,15,09,17.50
2016,08,22,15,10,17.50
2016,08,22,15,11,17.50
2016,08,22,15,12,17.50
2016,08,22,15,13,17.50
2016,08,22,15,14,17.60
2016,08,22,15,15,17.60
2016,08,22,15,16,17.60
2016,08,22,15,17,17.60
2016,08,22,15,18,17.60
2016,08,22,15,19,17.60
2016,08,22,15,20,17.60
2016,08,22,15,21,17.60
2016,08,22,15,22,17.60
2016,08,22,15,23,17.60
2016,08,22,15,24,17.60
2016,08,22,15,25,17.60
2016,08,22,15,26,17.60
2016,08,22,15,27,17.70
2016,08,22,15,28,17.70
2016,08,22,15,29,17.70
2016,08,22,15,30,17.70
2016,08,22,15,31,17.70
2016,08,22,15,32,17.70
2016,08,22,15,33,17.70
2016,08,22,15,34,17.70
2016,08,22,15,35,17.70
2016,08,22,15,36,17.70
2016,08,22,15,37,17.70
2016,08,22,15,38,17.70
2016,08,22,15,39,17.70
2016,08,22,15,40,17.80
2016,08,22,15,41,17.80
2016,08,22,15,42,17.80
2016,08,22,15,43,17.80
2016,08,22,15,44,17.80
2016,08,22,15,45,17.80
2016,08,22,15,46,17.80
2016,08,22,15,47,17.80
2016,08,22,15,48,17.80
2016,08,22,15,49,17.80
2016,08,22,15,50,17.80
2016,08,22,15,51,17.80
2016,08,22,15,52,17.90
2016,08,22,15,53,17.90
2016,08,22,15,54,17.90
2016,08,22,15,55,17.90
2016,08,22,15,56,17.90
2016,08,22,15,57,18.00
2016,08,22,15,58,18.00
2016,08,22,15,59,18.00
2016,08,22,16,00,18.00
2016,08,22,16,01,18.10
2016,08,22,16,02,18.10
2016,08,22,16,03,18.10
2016,08,22,16,04,18.10
2016,08,22,16,05,18.10
2016,08,22,16,06,18.10
2016,08,22,16,07,18.10
2016,08,22,16,08,18.10
2016,08,22,16,09,18.10
2016,08,22,16,10,18.10
2016,08,22,16,11,18.10
2016,08,22,16,12,18.10
2016,08,22,16,13,18.20
2016,08,22,16,14,18.20
2016,08,22,16,15,18.20
2016,08,22,16,16,18.20
2016,08,22,16,17,18.20
2016,08,22,16,18,18.20
2016,08,22,16,19,18.20
2016,08,22,16,20,18.20
2016,08,22,16,21,18.20
2016,08,22,16,22,18.20
2016,08,22,16,23,18.30
2016,08,22,16,24,18.30
2016,08,22,16,25,18.30
2016,08,22,16,26,18.30
2016,08,22,16,27,18.30
2016,08,22,16,28,18.30
2016,08,22,16,29,18.30
2016,08,22,16,30,18.40
2016,08,22,16,31,18.40
2016,08,22,16,32,18.40
2016,08,22,16,33,18.40
2016,08,22,16,34,18.40
2016,08,22,16,35,18.40
2016,08,22,16,36,18.40
2016,08,22,16,37,18.40
2016,08,22,16,38,18.40
2016,08,22,16,39,18.40
2016,08,22,16,40,18.40
2016,08,22,16,41,18.40
2016,08,22,16,42,18.40
2016,08,22,16,43,18.40
2016,08,22,16,44,18.40
2016,08,22,16,45,18.40
2016,08,22,16,46,18.40
2016,08,22,16,47,18.40
2016,08,22,16,48,18.30
2016,08,22,16,49,18.30
2016,08,22,16,50,18.30
2016,08,22,16,51,18.30
2016,08,22,16,52,18.30
2016,08,22,16,53,18.30
2016,08,22,16,54,18.40
2016,08,22,16,55,18.40
2016,08,22,16,56,18.40
2016,08,22,16,57,18.40
2016,08,22,16,58,18.40
2016,08,22,16,59,18.40
2016,08,22,17,00,18.40
2016,08,22,17,01,18.50
2016,08,22,17,02,18.50
2016,08,22,17,03,18.50
2016,08,22,17,04,18.50
2016,08,22,17,05,18.60
2016,08,22,17,06,18.60
2016,08,22,17,07,18.60
2016,08,22,17,08,18.60
2016,08,22,17,09,18.70
2016,08,22,17,10,18.70
2016,08,22,17,11,18.70
2016,08,22,17,12,18.70
2016,08,22,17,13,18.70
2016,08,22,17,14,18.70
2016,08,22,17,15,18.70
2016,08,22,17,16,18.70
2016,08,22,17,17,18.70
2016,08,22,17,18,18.70
2016,08,22,17,19,18.70